Back to catalog

CZ-6A DEB

AlivePO
NORAD 60710·DEBRIS·🇨🇳 China

Launched Aug 6, 2024 from Taiyuan Satellite Launch Center

Loading…

Next Passes (next 24 hours)

TLE

FreshSource: Space-Track

Epoch: Sep 14, 2026, 12:34 UTC

1 60710U 24140DP  26257.52374323  .00000228  00000-0  10038-3 0  9993
2 60710  89.2009 283.1044 0041607 244.8818 114.8053 14.19888497108313

Track CZ-6A DEB in real time with AllMySat

Download on the App Store